Weather History for Johnstown, PA

Change the Weather History Date:

Thursday, November 22, 2012

  Actual Average Record
Temperature  
Mean Temperature 44 °F 37 °F  
Max Temperature 55 °F 43 °F 73 °F (1909)
Min Temperature 32 °F 31 °F 12 °F (2000)
Degree Days  
Heating Degree Days 22 28  
Month to date heating degree days 522  
Since 1 July heating degree days 1215  
Cooling Degree Days 0 0  
Month to date cooling degree days 0  
Year to date cooling degree days 382  
Moisture  
Dew Point 24 °F    
Average Humidity 48    
Maximum Humidity 70    
Minimum Humidity 24    
Precipitation  
Precipitation 0.00 in 0.13 in 2.70 in (1952)
Month to date precipitation 2.65  
Year to date precipitation 30.00  
Sea Level Pressure  
Sea Level Pressure 30.20 in    
Wind  
Wind Speed 5 mph (SW)    
Max Wind Speed 9 mph    
Max Gust Speed -    
Visibility 10 miles    
Events      
T = Trace of Precipitation, MM = Missing Value Source: NWS Daily Summary

Daily Weather History Graph

Daily Weather History Graph

Search for Another Location

Airport:

Trip Planner

Search our weather history database for the weather conditions in past years. The results will help you decide how hot, cold, wet, or windy it might be!

Date:

Astronomy

Nov. 22, 2012 Rise Set
Actual Time 7:09 AM EST 4:53 PM EST
Civil Twilight 6:40 AM EST 5:22 PM EST
Nautical Twilight 6:06 AM EST 5:56 PM EST
Astronomical Twilight 5:34 AM EST 6:28 PM EST
Moon 1:38 PM EST (11/22) 1:27 AM EST (11/22)
Length of Visible Light 10h 42m
Length of Day
9h 43m
Waxing Gibbous, 71% of the Moon is Illuminated
Nov 22
Waxing Gibbous
Nov 28
Full
Dec 6
Last Quarter
Dec 13
New
Dec 20
First Quarter

Hourly Weather History & Observations

Time (EST) Temp. Windchill Dew Point Humidity Pressure Visibility Wind Dir Wind Speed Gust Speed Precip Events Conditions
12:54 AM 37.0 °F 33.3 °F 24.1 °F 59% 30.23 in 10.0 mi SW 4.6 mph - N/A   Clear
1:54 AM 37.9 °F 33.5 °F 24.1 °F 57% 30.23 in 10.0 mi WSW 5.8 mph - N/A   Clear
2:54 AM 37.0 °F 33.3 °F 24.1 °F 59% 30.23 in 10.0 mi SW 4.6 mph - N/A   Clear
3:54 AM 35.1 °F 30.1 °F 23.0 °F 61% 30.23 in 10.0 mi SW 5.8 mph - N/A   Clear
4:54 AM 37.0 °F 33.3 °F 24.1 °F 59% 30.24 in 10.0 mi SW 4.6 mph - N/A   Clear
5:54 AM 35.1 °F 30.1 °F 23.0 °F 61% 30.26 in 10.0 mi SW 5.8 mph - N/A   Clear
6:54 AM 32.0 °F 26.4 °F 23.0 °F 69% 30.27 in 10.0 mi SW 5.8 mph - N/A   Clear
7:54 AM 34.0 °F 31.0 °F 25.0 °F 70% 30.27 in 10.0 mi SW 3.5 mph - N/A   Clear
8:54 AM 39.9 °F - 26.1 °F 58% 30.26 in 10.0 mi Calm Calm - N/A   Clear
9:54 AM 44.1 °F 42.5 °F 27.0 °F 51% 30.26 in 10.0 mi WSW 3.5 mph - N/A   Clear
10:54 AM 48.0 °F - 27.0 °F 44% 30.25 in 10.0 mi South 4.6 mph - N/A   Clear
11:54 AM 51.1 °F - 23.0 °F 33% 30.22 in 10.0 mi WSW 4.6 mph - N/A   Clear
12:54 PM 53.1 °F - 23.0 °F 31% 30.20 in 10.0 mi West 4.6 mph - N/A   Clear
1:54 PM 54.0 °F - 18.0 °F 24% 30.19 in 10.0 mi West 4.6 mph - N/A   Clear
2:54 PM 55.0 °F - 21.0 °F 27% 30.17 in 10.0 mi South 4.6 mph - N/A   Clear
3:54 PM 55.0 °F - 21.0 °F 27% 30.17 in 10.0 mi SW 5.8 mph - N/A   Clear
4:54 PM 50.0 °F - 25.0 °F 38% 30.17 in 10.0 mi SE 5.8 mph - N/A   Clear
5:54 PM 46.0 °F 41.4 °F 26.1 °F 46% 30.17 in 10.0 mi SSE 9.2 mph - N/A   Clear
6:54 PM 45.0 °F 40.6 °F 24.1 °F 44% 30.17 in 10.0 mi SSE 8.1 mph - N/A   Clear
7:54 PM 45.0 °F 41.8 °F 21.9 °F 40% 30.16 in 10.0 mi SSW 5.8 mph - N/A   Clear
8:54 PM 44.1 °F 40.1 °F 21.9 °F 42% 30.14 in 10.0 mi SSW 6.9 mph - N/A   Clear
9:54 PM 44.1 °F 39.5 °F 23.0 °F 43% 30.12 in 10.0 mi SSW 8.1 mph - N/A   Clear
10:54 PM 41.0 °F 37.1 °F 24.1 °F 51% 30.10 in 10.0 mi SSW 5.8 mph - N/A   Clear
11:54 PM 43.0 °F 38.8 °F 24.1 °F 47% 30.07 in 10.0 mi SSW 6.9 mph - N/A   Clear